Date,TemperatureHighF,TemperatureAvgF,TemperatureLowF,DewpointHighF,DewpointAvgF,DewpointLowF,HumidityHigh,HumidityAvg,HumidityLow,PressureMaxIn,PressureMinIn,WindSpeedMaxMPH,WindSpeedAvgMPH,GustSpeedMaxMPH,PrecipitationSumIn
2012-1-1,45.0,39.6,36.0,42.0,35.6,33.0,98,86,66,0.00,40.00,8,4,16,0.00
2012-1-2,48.0,43.4,36.0,47.0,35.0,22.0,97,74,52,0.00,40.00,11,8,23,0.11
2012-1-3,36.0,25.4,11.0,22.0,12.0,3.0,69,56,45,0.00,40.00,9,5,21,0.08
2012-1-4,27.0,15.9,9.0,13.0,2.4,-1.0,74,56,38,0.00,40.00,9,5,20,0.00
2012-1-5,34.0,28.5,25.0,24.0,14.7,9.0,70,56,49,0.00,40.00,8,4,22,0.00
2012-1-6,40.0,28.9,23.0,38.0,19.3,9.0,95,69,47,0.00,40.00,6,3,19,0.07
2012-1-7,42.0,34.8,29.0,38.0,33.4,28.0,97,95,87,0.00,40.00,4,1,8,0.07
2012-1-8,41.0,34.4,28.0,32.0,24.4,18.0,97,69,44,0.00,40.00,8,4,21,0.00
2012-1-9,37.0,28.3,20.0,25.0,15.3,5.0,82,58,41,0.00,40.00,7,4,17,0.00
2012-1-10,40.0,37.3,27.0,35.0,27.4,19.0,93,68,48,0.00,40.00,10,6,23,0.05
2012-1-11,32.0,22.7,16.0,19.0,6.0,-2.0,65,49,31,0.00,40.00,10,5,22,0.01
2012-1-12,39.0,31.7,25.0,38.0,27.5,12.0,96,85,58,0.00,40.00,15,9,34,0.99
2012-1-13,50.0,36.0,29.0,48.0,32.2,22.0,98,87,62,0.00,40.00,14,7,35,0.71
2012-1-14,35.0,26.6,11.0,25.0,15.2,-1.0,70,62,52,0.00,40.00,12,7,28,0.03
2012-1-15,15.0,9.1,4.0,1.0,-0.9,-2.0,77,64,47,0.00,40.00,8,6,22,0.00
2012-1-16,37.0,20.8,9.0,25.0,8.6,0.0,71,59,44,0.00,40.00,16,6,33,0.00
2012-1-17,44.0,35.1,31.0,43.0,32.2,28.0,97,89,69,0.00,40.00,14,4,35,0.33
2012-1-18,46.0,34.7,17.0,45.0,23.3,3.0,97,65,42,0.00,40.00,11,8,28,0.25
2012-1-19,27.0,18.9,9.0,19.0,5.3,-1.0,71,55,38,0.00,40.00,8,4,23,0.00
2012-1-20,33.0,28.1,18.0,32.0,21.1,5.0,96,75,57,0.00,40.00,7,5,19,0.22
2012-1-21,18.0,14.5,13.0,11.0,6.1,-2.0,81,69,50,0.00,40.00,9,5,16,0.01
2012-1-22,25.0,16.4,12.0,11.0,7.2,4.0,89,68,46,0.00,40.00,8,4,15,0.02
2012-1-23,45.0,35.7,17.0,44.0,31.3,15.0,97,84,72,0.00,40.00,10,5,23,0.19
2012-1-24,51.0,44.4,38.0,50.0,43.3,36.0,98,97,93,0.00,40.00,12,6,27,0.40
2012-1-25,41.0,35.5,29.0,36.0,24.5,18.0,95,65,49,0.00,40.00,7,5,19,0.09
2012-1-26,37.0,31.2,27.0,21.0,16.6,13.0,74,55,39,0.00,40.00,7,4,16,0.00
2012-1-27,49.0,38.3,31.0,48.0,35.4,20.0,98,90,56,0.00,40.00,13,7,33,1.99
2012-1-28,43.0,36.5,29.0,34.0,28.3,25.0,96,73,53,0.00,40.00,10,6,30,0.18
2012-1-29,42.0,38.2,35.0,34.0,22.6,15.0,79,55,33,0.00,40.00,9,6,20,0.00
2012-1-30,39.0,32.8,24.0,27.0,17.3,4.0,89,54,33,0.00,40.00,8,6,20,0.01
2012-1-31,36.0,26.4,22.0,34.0,17.4,4.0,96,70,44,0.00,40.00,7,5,17,0.04
2012-2-1,41.0,35.3,30.0,40.0,34.1,27.0,97,95,92,0.00,40.00,6,3,14,0.26
2012-2-2,28.0,25.6,24.0,27.0,20.9,17.0,94,83,76,0.00,40.00,8,6,17,0.09
2012-2-3,31.0,25.1,19.0,17.0,13.3,10.0,79,62,42,0.00,40.00,9,6,23,0.00
2012-2-4,34.0,29.0,21.0,21.0,15.3,11.0,74,57,40,0.00,40.00,9,4,19,0.00
2012-2-5,31.0,22.9,16.0,13.0,9.0,5.0,72,56,36,0.00,40.00,7,4,14,0.00
2012-2-6,42.0,35.8,27.0,34.0,25.1,13.0,87,66,52,0.00,40.00,8,5,17,0.00
2012-2-7,43.0,34.2,23.0,29.0,21.8,7.0,89,62,40,0.00,40.00,8,4,22,0.00
2012-2-8,36.0,26.9,13.0,23.0,11.8,3.0,72,53,35,0.00,40.00,9,5,21,0.00
2012-2-9,42.0,32.6,23.0,23.0,18.6,12.0,89,59,30,0.00,40.00,6,3,12,0.00
2012-2-10,46.0,35.0,20.0,37.0,27.5,18.0,91,76,50,0.00,40.00,10,5,22,0.00
2012-2-11,40.0,32.5,21.0,34.0,29.2,15.0,95,88,74,0.00,40.00,12,5,23,0.09
2012-2-12,22.0,15.5,8.0,15.0,3.0,-7.0,79,58,45,0.00,40.00,11,8,30,0.07
2012-2-13,30.0,21.2,9.0,11.0,5.3,-5.0,73,50,40,0.00,40.00,8,5,23,0.02
2012-2-14,44.0,31.9,16.0,28.0,22.4,11.0,86,69,42,0.00,40.00,7,4,15,0.02
2012-2-15,43.0,35.0,29.0,34.0,30.6,27.0,95,85,69,0.00,40.00,2,1,5,0.02
2012-2-16,48.0,36.1,29.0,34.0,30.6,27.0,95,83,48,0.00,40.00,4,1,8,0.00
2012-2-17,41.0,38.3,33.0,40.0,37.1,31.0,97,96,90,0.00,40.00,8,3,16,0.17
2012-2-18,43.0,35.4,32.0,31.0,24.7,19.0,97,67,41,0.00,40.00,7,4,16,0.01
2012-2-19,41.0,34.0,30.0,20.0,16.1,13.0,62,49,31,0.00,40.00,9,6,21,0.00
2012-2-20,35.0,28.9,23.0,17.0,11.8,7.0,64,49,31,0.00,40.00,8,6,25,0.00
2012-2-21,37.0,30.6,22.0,29.0,17.0,12.0,73,58,37,0.00,40.00,10,5,20,0.01
2012-2-22,46.0,40.9,36.0,41.0,37.6,33.0,96,88,76,0.00,40.00,9,6,19,0.07
2012-2-23,46.0,42.1,35.0,44.0,36.7,26.0,96,82,64,0.00,40.00,10,6,24,0.22
2012-2-24,41.0,35.4,29.0,36.0,29.0,26.0,96,78,57,0.00,40.00,9,4,23,0.74
2012-2-25,41.0,36.3,30.0,39.0,28.8,18.0,97,75,59,0.00,40.00,9,6,23,1.44
2012-2-26,36.0,29.5,25.0,18.0,11.3,7.0,61,47,31,0.00,40.00,11,8,30,0.01
2012-2-27,41.0,29.1,19.0,39.0,17.2,7.0,92,62,42,0.00,40.00,9,5,21,0.03
2012-2-28,39.0,32.1,26.0,37.0,23.1,13.0,95,71,45,0.00,40.00,10,5,22,0.03
2012-2-29,38.0,26.6,14.0,19.0,14.8,11.0,88,63,34,0.00,40.00,9,2,18,0.00
2012-3-1,32.0,26.7,21.0,25.0,21.9,18.0,92,82,56,0.00,40.00,13,11,28,0.00
2012-3-2,32.0,23.8,18.0,27.0,20.6,15.0,93,88,80,0.00,40.00,10,5,21,0.00
2012-3-3,43.0,34.5,26.0,42.0,28.7,-99.9,98,90,85,0.00,40.00,11,-38,28,0.72
2012-3-4,41.0,35.3,26.0,36.0,28.7,25.0,97,78,59,0.00,40.00,7,3,16,0.01
2012-3-5,34.0,27.7,22.0,28.0,17.7,7.0,96,68,42,0.00,40.00,7,4,17,0.04
2012-3-6,34.0,25.0,18.0,13.0,9.8,5.0,68,53,35,0.00,40.00,6,4,16,0.01
2012-3-7,47.0,37.0,19.0,39.0,29.0,11.0,87,73,55,0.00,40.00,11,7,29,0.00
2012-3-8,52.0,47.3,42.0,44.0,41.4,36.0,89,80,72,0.00,40.00,15,12,38,0.00
2012-3-9,49.0,38.5,31.0,46.0,21.3,-99.9,95,61,33,0.00,40.00,15,-44,34,0.35
2012-3-10,40.0,31.1,25.0,20.0,14.9,10.0,73,52,30,0.00,40.00,7,4,15,0.01
2012-3-11,45.0,39.2,29.0,36.0,28.2,20.0,90,65,52,0.00,40.00,11,7,23,0.00
2012-3-12,61.0,46.5,32.0,37.0,33.6,30.0,95,65,35,0.00,40.00,8,4,13,0.00
2012-3-13,52.0,44.1,39.0,44.0,39.4,34.0,96,84,70,0.00,40.00,8,3,14,0.00
2012-3-14,39.0,36.2,33.0,38.0,34.8,29.0,97,95,89,0.00,40.00,10,7,22,0.14
2012-3-15,37.0,33.1,31.0,30.0,27.5,26.0,94,80,66,0.00,40.00,8,6,16,0.01
2012-3-16,38.0,35.2,33.0,36.0,31.1,28.0,97,85,73,0.00,40.00,6,2,10,0.27
2012-3-17,54.0,42.6,35.0,38.0,36.1,33.0,97,80,50,0.00,40.00,7,3,11,0.10
2012-3-18,51.0,43.0,38.0,43.0,34.5,-99.9,95,81,72,0.00,40.00,14,-34,26,0.01
2012-3-19,61.0,49.2,41.0,45.0,40.0,34.0,96,72,48,0.00,40.00,12,7,23,0.01
2012-3-20,55.0,44.0,35.0,46.0,34.8,-99.9,96,79,64,0.00,40.00,12,-20,19,0.00
2012-3-21,72.0,55.4,43.0,52.0,47.3,42.0,97,77,49,0.00,40.00,9,5,21,0.00
2012-3-22,66.0,56.7,47.0,51.0,46.4,-99.9,92,72,52,0.00,40.00,11,-4,24,0.00
2012-3-23,62.0,54.8,45.0,49.0,32.1,21.0,79,46,22,0.00,40.00,6,4,16,0.00
2012-3-24,50.0,40.3,36.0,33.0,15.9,-99.9,77,43,23,0.00,40.00,9,5,15,0.00
2012-3-25,45.0,40.7,38.0,39.0,36.6,34.0,96,85,70,0.00,40.00,6,3,14,0.25
2012-3-26,39.0,35.2,29.0,38.0,24.5,10.0,98,69,42,0.00,40.00,11,6,29,0.03
2012-3-27,41.0,31.7,23.0,12.0,8.2,3.0,54,39,22,0.00,40.00,12,9,29,0.01
2012-3-28,41.0,34.4,33.0,35.0,15.8,-99.9,94,55,32,0.00,40.00,9,-39,18,0.57
2012-3-29,37.0,33.3,33.0,35.0,26.1,-99.9,95,85,79,0.00,40.00,9,-39,23,0.60
2012-3-30,43.0,37.1,33.0,30.0,22.6,17.0,80,57,38,0.00,40.00,9,7,26,0.01
2012-3-31,46.0,35.8,26.0,26.0,21.1,14.0,81,56,27,0.00,40.00,6,3,15,0.00
2012-4-1,53.0,34.7,25.0,33.0,20.5,-99.9,94,68,32,0.00,40.00,5,2,11,0.00
2012-4-2,49.0,39.5,33.0,35.0,30.9,18.0,89,72,42,0.00,40.00,6,2,14,0.00
2012-4-3,51.0,40.2,34.0,27.0,15.4,-99.9,59,41,34,0.00,40.00,8,5,19,0.00
2012-4-4,54.0,44.5,38.0,34.0,29.1,25.0,67,55,37,0.00,40.00,6,4,20,0.00
2012-4-5,47.0,40.2,37.0,29.0,18.9,-99.9,67,48,43,0.00,40.00,8,6,21,0.00
2012-4-6,49.0,36.6,31.0,31.0,12.3,-99.9,90,49,34,0.00,40.00,8,-92,17,0.00
2012-4-7,47.0,40.0,29.0,26.0,22.2,20.0,81,50,37,0.00,40.00,8,5,19,0.00
2012-4-8,41.0,37.7,35.0,37.0,29.2,24.0,92,72,53,0.00,40.00,8,4,20,0.08
2012-4-9,48.0,43.6,39.0,42.0,38.5,36.0,92,82,70,0.00,40.00,9,6,17,0.06
2012-4-10,52.0,45.5,38.0,38.0,36.3,33.0,90,72,53,0.00,40.00,10,7,22,0.01
2012-4-11,57.0,40.9,32.0,42.0,35.3,31.0,97,82,45,0.00,40.00,7,2,13,0.00
2012-4-12,51.0,43.9,37.0,42.0,32.8,-99.9,96,79,62,0.00,40.00,8,3,16,0.09
2012-4-13,55.0,44.0,34.0,41.0,35.5,31.0,97,75,40,0.00,40.00,10,4,19,0.08
2012-4-14,59.0,47.2,35.0,37.0,33.8,27.0,91,63,32,0.00,40.00,9,4,20,0.00
2012-4-15,62.0,51.8,43.0,48.0,43.0,39.0,88,73,48,0.00,40.00,10,5,16,0.00
2012-4-16,69.0,51.7,45.0,56.0,36.9,-99.9,94,78,62,0.00,40.00,10,3,24,0.00
2012-4-17,62.0,52.0,46.0,51.0,47.3,44.0,97,85,63,0.00,40.00,9,4,19,0.00
2012-4-18,58.0,48.9,38.0,46.0,32.9,28.0,95,56,33,0.00,40.00,9,4,18,0.00
2012-4-19,53.0,44.0,33.0,42.0,38.2,31.0,96,81,64,0.00,40.00,8,4,16,0.00
2012-4-20,59.0,51.1,45.0,48.0,44.4,40.0,92,78,64,0.00,40.00,11,8,24,0.00
2012-4-21,55.0,50.8,48.0,53.0,47.1,40.0,96,88,75,0.00,40.00,10,8,21,0.02
2012-4-22,52.0,43.9,39.0,51.0,40.8,-99.9,98,95,90,0.00,40.00,13,6,25,0.28
2012-4-23,54.0,47.5,38.0,53.0,46.5,37.0,98,97,95,0.00,40.00,14,10,29,2.26
2012-4-24,53.0,48.4,45.0,48.0,45.0,41.0,98,88,68,0.00,40.00,13,7,26,0.35
2012-4-25,57.0,48.7,43.0,44.0,38.4,34.0,89,69,46,0.00,40.00,9,7,21,0.01
2012-4-26,56.0,46.3,35.0,44.0,37.3,34.0,97,74,43,0.00,40.00,8,4,18,0.00
2012-4-27,50.0,46.9,39.0,48.0,40.7,25.0,97,81,54,0.00,40.00,9,6,27,0.39
2012-4-28,51.0,41.6,34.0,25.0,21.6,17.0,60,46,27,0.00,40.00,10,7,27,0.03
2012-4-29,53.0,44.4,34.0,29.0,19.1,-99.9,63,38,25,0.00,40.00,9,5,22,0.00
2012-4-30,53.0,44.3,35.0,38.0,27.3,18.0,85,53,32,0.00,40.00,8,6,17,0.00
2012-5-1,47.0,42.6,40.0,41.0,39.4,38.0,96,88,77,0.00,40.00,8,5,16,0.57
2012-5-2,47.0,43.0,41.0,43.0,41.1,40.0,98,93,86,0.00,40.00,5,2,10,0.08
2012-5-3,53.0,45.9,41.0,44.0,42.3,41.0,100,88,70,0.00,40.00,5,2,10,0.00
2012-5-4,48.0,45.7,44.0,47.0,44.8,43.0,99,97,93,0.00,40.00,5,3,10,0.40
2012-5-5,55.0,47.5,39.0,51.0,46.6,39.0,100,96,87,0.00,40.00,4,2,9,0.12
2012-5-6,62.0,46.4,37.0,43.0,36.8,-99.9,100,76,35,0.00,40.00,7,3,12,0.01
2012-5-7,67.0,47.8,34.0,41.0,36.3,28.0,100,70,23,0.00,40.00,11,4,19,0.00
2012-5-8,56.0,46.6,39.0,47.0,41.8,37.0,98,84,53,0.00,40.00,10,5,27,0.46
2012-5-9,53.0,50.3,47.0,52.0,50.3,46.0,100,99,98,0.00,40.00,11,8,27,0.62
2012-5-10,59.0,52.1,48.0,54.0,51.1,47.0,100,97,84,0.00,40.00,10,7,24,2.30
2012-5-11,59.0,51.4,44.0,48.0,45.6,42.0,100,82,61,0.00,40.00,7,4,16,0.04
2012-5-12,64.0,55.1,46.0,44.0,41.8,39.0,85,62,45,0.00,40.00,8,6,16,0.00
2012-5-13,64.0,55.2,48.0,51.0,41.6,-99.9,95,64,47,0.00,40.00,9,6,19,0.00
2012-5-14,57.0,50.7,47.0,50.0,47.7,46.0,100,90,74,0.00,40.00,9,4,20,0.00
2012-5-15,68.0,57.8,50.0,55.0,52.6,49.0,100,84,60,0.00,40.00,10,6,21,0.04
2012-5-16,59.0,54.4,51.0,59.0,54.1,51.0,100,99,98,0.00,40.00,10,7,23,1.40
2012-5-17,67.0,56.8,44.0,56.0,46.4,35.0,100,74,36,0.00,40.00,9,5,15,0.01
2012-5-18,67.0,53.2,39.0,47.0,40.4,36.0,98,67,33,0.00,40.00,10,4,19,0.00
2012-5-19,66.0,56.7,44.0,53.0,45.8,43.0,97,69,48,0.00,40.00,10,5,19,0.00
2012-5-20,70.0,56.3,45.0,53.0,40.4,-99.9,97,64,40,0.00,40.00,8,-28,16,0.00
2012-5-21,73.0,61.2,47.0,55.0,49.1,41.0,93,67,40,0.00,40.00,7,3,13,0.00
2012-5-22,66.0,58.0,55.0,63.0,57.1,54.0,100,97,88,0.00,40.00,7,3,17,0.48
2012-5-23,73.0,62.8,56.0,65.0,59.9,53.0,100,91,74,0.00,40.00,8,3,17,0.03
2012-5-24,63.0,56.2,53.0,55.0,52.0,49.0,100,86,76,0.00,40.00,8,5,18,0.00
2012-5-25,60.0,55.7,52.0,58.0,54.9,52.0,100,97,87,0.00,40.00,9,5,19,0.01
2012-5-26,74.0,61.7,55.0,65.0,59.4,54.0,100,93,72,0.00,40.00,10,5,20,0.00
2012-5-27,72.0,60.7,49.0,54.0,42.8,-99.9,100,61,29,0.00,40.00,7,4,14,0.00
2012-5-28,71.0,59.9,52.0,56.0,52.8,49.0,99,79,54,0.00,40.00,3,2,8,0.02
2012-5-29,57.0,53.2,51.0,55.0,51.8,49.0,100,96,78,0.00,40.00,11,5,33,1.12
2012-5-30,62.0,55.4,50.0,58.0,54.4,50.0,100,96,86,0.00,40.00,7,3,16,0.06
2012-5-31,63.0,56.5,51.0,57.0,54.6,50.0,100,94,79,0.00,40.00,8,3,16,0.00
2012-6-1,72.0,57.8,48.0,51.0,48.3,45.0,100,74,38,0.00,40.00,8,3,16,0.01
2012-6-2,59.0,54.1,50.0,51.0,49.0,46.0,96,83,74,0.00,40.00,8,5,20,0.01
2012-6-3,52.0,49.7,49.0,51.0,47.4,-99.9,99,96,85,0.00,40.00,11,8,30,3.04
2012-6-4,54.0,50.3,48.0,51.0,48.5,47.0,98,94,87,0.00,40.00,10,6,30,0.86
2012-6-5,58.0,50.7,47.0,51.0,47.4,45.0,98,89,76,0.00,40.00,7,4,16,0.04
2012-6-6,66.0,53.9,47.0,52.0,48.4,46.0,99,83,55,0.00,40.00,6,3,13,0.02
2012-6-7,59.0,52.1,46.0,51.0,47.7,46.0,100,86,70,0.00,40.00,6,4,12,0.05
2012-6-8,57.0,52.3,48.0,54.0,51.3,48.0,100,97,87,0.00,40.00,8,6,16,0.10
2012-6-9,76.0,61.6,49.0,59.0,52.5,47.0,100,76,39,0.00,40.00,4,2,15,0.15
2012-6-10,73.0,59.0,46.0,55.0,48.8,-99.9,98,76,50,0.00,40.00,5,2,12,0.01
2012-6-11,70.0,55.2,45.0,57.0,45.3,-99.9,100,79,62,0.00,40.00,8,-38,15,0.00
2012-6-12,67.0,60.0,55.0,56.0,53.0,49.0,89,78,68,0.00,40.00,12,9,25,0.00
2012-6-13,61.0,58.0,55.0,59.0,56.3,53.0,100,94,88,0.00,40.00,8,6,18,0.33
2012-6-14,75.0,63.4,52.0,57.0,51.1,44.0,100,69,34,0.00,40.00,6,4,14,0.01
2012-6-15,77.0,62.9,49.0,57.0,50.6,46.0,94,67,42,0.00,40.00,6,3,15,0.01
2012-6-16,65.0,57.5,51.0,52.0,50.0,44.0,94,77,57,0.00,40.00,9,5,18,0.00
2012-6-17,68.0,55.2,42.0,55.0,45.8,-99.9,100,76,48,0.00,40.00,6,2,12,0.00
2012-6-18,63.0,56.6,47.0,52.0,50.0,43.0,98,80,65,0.00,40.00,7,4,12,0.00
2012-6-19,65.0,52.0,43.0,58.0,34.6,-99.9,100,80,76,0.00,40.00,9,-37,23,0.00
2012-6-20,82.0,71.7,59.0,68.0,63.9,59.0,99,77,62,0.00,40.00,9,5,17,0.00
2012-6-21,80.0,70.8,62.0,66.0,59.3,52.0,97,69,45,0.00,40.00,4,3,11,0.00
2012-6-22,77.0,64.7,59.0,62.0,56.9,51.0,95,77,59,0.00,40.00,8,4,15,0.10
2012-6-23,64.0,59.3,57.0,62.0,58.4,56.0,100,97,91,0.00,40.00,7,4,14,0.73
2012-6-24,78.0,66.0,57.0,64.0,60.3,55.0,100,83,60,0.00,40.00,7,4,15,0.78
2012-6-25,71.0,64.1,60.0,63.0,59.8,55.0,99,86,72,0.00,40.00,8,6,19,0.38
2012-6-26,71.0,62.3,57.0,64.0,59.8,56.0,100,92,76,0.00,40.00,8,5,20,1.25
2012-6-27,64.0,59.2,56.0,61.0,57.4,55.0,98,94,83,0.00,40.00,8,6,17,0.27
2012-6-28,78.0,64.0,55.0,64.0,58.8,55.0,100,85,59,0.00,40.00,7,4,14,0.01
2012-6-29,80.0,66.0,57.0,65.0,61.2,56.0,99,85,60,0.00,40.00,10,5,19,0.00
2012-6-30,82.0,71.3,60.0,65.0,61.1,57.0,99,72,52,0.00,40.00,9,5,17,0.00
2012-7-1,86.0,70.0,57.0,67.0,61.4,57.0,100,78,41,0.00,40.00,7,2,15,0.02
2012-7-2,82.0,67.7,58.0,64.0,60.8,58.0,100,81,50,0.00,40.00,6,2,14,0.02
2012-7-3,80.0,67.6,56.0,64.0,59.8,56.0,100,79,55,0.00,40.00,7,3,12,0.00
2012-7-4,77.0,66.3,61.0,68.0,63.9,59.0,100,92,74,0.00,40.00,6,4,12,0.06
2012-7-5,81.0,66.5,59.0,70.0,63.5,59.0,100,91,65,0.00,40.00,4,2,7,0.01
2012-7-6,81.0,67.6,60.0,68.0,63.4,60.0,100,88,64,0.00,40.00,7,4,14,0.00
2012-7-7,78.0,70.4,62.0,68.0,64.3,61.0,97,82,63,0.00,40.00,8,5,16,0.00
2012-7-8,82.0,71.2,57.0,62.0,55.7,49.0,100,62,39,0.00,40.00,6,3,13,0.00
2012-7-9,79.0,66.1,50.0,59.0,54.9,49.0,96,69,41,0.00,40.00,6,4,14,0.00
2012-7-10,76.0,65.8,48.0,59.0,54.3,47.0,96,69,41,0.00,40.00,8,4,22,0.00
2012-7-11,83.0,67.5,53.0,65.0,57.3,52.0,99,74,40,0.00,40.00,7,4,15,0.00
2012-7-12,78.0,69.0,62.0,67.0,61.4,53.0,100,79,51,0.00,40.00,10,7,20,0.00
2012-7-13,81.0,71.1,62.0,68.0,63.9,59.0,93,79,63,0.00,40.00,7,6,17,0.00
2012-7-14,81.0,72.3,65.0,68.0,64.6,60.0,89,77,63,0.00,40.00,7,5,14,0.00
2012-7-15,73.0,64.1,63.0,66.0,54.8,-99.9,98,81,71,0.00,40.00,9,-44,20,0.00
2012-7-16,81.0,67.2,60.0,68.0,63.8,59.0,100,90,54,0.00,40.00,7,3,14,0.07
2012-7-17,79.0,67.9,60.0,70.0,64.9,60.0,99,90,74,0.00,40.00,9,3,16,0.01
2012-7-18,84.0,73.4,64.0,68.0,64.9,56.0,98,77,52,0.00,40.00,8,4,16,0.01
2012-7-19,76.0,66.1,55.0,56.0,53.1,50.0,87,65,46,0.00,40.00,6,3,11,0.01
2012-7-20,75.0,64.9,49.0,56.0,53.6,48.0,99,70,47,0.00,40.00,7,3,14,0.00
2012-7-21,79.0,61.9,49.0,61.0,49.1,-99.9,99,73,50,0.00,40.00,9,-43,15,0.00
2012-7-22,76.0,68.3,62.0,65.0,61.8,60.0,97,81,67,0.00,40.00,11,8,22,0.00
2012-7-23,77.0,69.2,63.0,68.0,64.3,61.0,98,85,72,0.00,40.00,10,8,21,0.00
2012-7-24,75.0,68.0,63.0,69.0,66.2,58.0,99,94,78,0.00,40.00,10,5,24,0.73
2012-7-25,78.0,64.4,57.0,59.0,49.1,-99.9,95,66,46,0.00,40.00,6,-43,14,0.01
2012-7-26,72.0,63.7,54.0,64.0,58.9,53.0,99,85,63,0.00,40.00,4,1,10,0.00
2012-7-27,71.0,62.3,59.0,66.0,57.3,-99.9,100,92,84,0.00,40.00,3,-35,8,0.38
2012-7-28,79.0,67.1,57.0,70.0,63.1,57.0,100,88,68,0.00,40.00,4,1,7,0.01
2012-7-29,66.0,64.0,58.0,65.0,63.3,57.0,100,98,94,0.00,40.00,4,2,9,0.31
2012-7-30,76.0,64.7,55.0,68.0,61.5,55.0,100,90,68,0.00,40.00,9,4,16,0.03
2012-7-31,75.0,68.3,63.0,66.0,62.5,60.0,98,83,66,0.00,40.00,9,7,20,0.00
2012-8-1,79.0,67.0,61.0,68.0,64.1,61.0,100,91,69,0.00,40.00,6,4,14,0.93
2012-8-2,78.0,70.4,64.0,70.0,66.6,64.0,100,88,73,0.00,40.00,6,3,12,0.76
2012-8-3,81.0,72.0,63.0,72.0,68.2,63.0,100,89,72,0.00,40.00,8,4,15,0.00
2012-8-4,86.0,68.6,62.0,68.0,57.3,-99.9,100,77,56,0.00,40.00,4,-43,10,0.00
2012-8-5,81.0,68.6,61.0,73.0,62.0,-99.9,100,89,77,0.00,40.00,10,7,24,0.00
2012-8-6,83.0,69.6,62.0,71.0,58.0,-99.9,100,77,50,0.00,40.00,11,-42,25,0.00
2012-8-7,79.0,66.3,53.0,64.0,58.1,53.0,100,78,50,0.00,40.00,7,3,14,0.00
2012-8-8,80.0,71.2,63.0,68.0,65.9,62.0,98,84,63,0.00,40.00,8,6,16,0.00
2012-8-9,79.0,70.9,65.0,70.0,68.0,64.0,100,91,73,0.00,40.00,7,3,12,0.00
2012-8-10,74.0,67.3,63.0,66.0,64.8,63.0,100,92,77,0.00,40.00,7,5,16,0.07
2012-8-11,78.0,69.2,64.0,71.0,66.3,-99.9,100,94,77,0.00,40.00,7,3,15,0.73
2012-8-12,76.0,69.9,65.0,74.0,69.5,65.0,100,98,92,0.00,40.00,7,5,16,0.11
2012-8-13,81.0,68.9,67.0,71.0,62.3,-99.9,100,87,72,0.00,40.00,7,-32,14,0.01
2012-8-14,83.0,72.1,63.0,69.0,66.7,63.0,100,85,63,0.00,40.00,6,3,10,0.00
2012-8-15,81.0,71.7,65.0,72.0,67.6,64.0,99,87,70,0.00,40.00,5,4,12,0.00
2012-8-16,68.0,65.1,62.0,68.0,64.7,61.0,100,98,94,0.00,40.00,7,3,15,1.13
2012-8-17,78.0,68.9,61.0,66.0,63.8,60.0,99,85,67,0.00,40.00,7,4,13,0.23
2012-8-18,75.0,67.6,62.0,68.0,64.6,61.0,100,91,71,0.00,40.00,6,1,11,0.10
2012-8-19,78.0,66.2,58.0,63.0,59.6,57.0,100,81,56,0.00,40.00,5,2,11,0.22
2012-8-20,79.0,65.4,53.0,63.0,60.0,53.0,99,85,55,0.00,40.00,5,2,10,0.00
2012-8-21,77.0,66.1,58.0,67.0,61.3,58.0,100,86,58,0.00,40.00,4,2,8,0.00
2012-8-22,79.0,64.8,54.0,62.0,58.4,51.0,99,83,41,0.00,40.00,7,2,11,0.00
2012-8-23,78.0,64.2,58.0,68.0,56.3,-99.9,100,85,61,0.00,40.00,6,-38,14,0.01
2012-8-24,80.0,64.6,56.0,66.0,59.3,55.0,100,85,53,0.00,40.00,5,2,10,0.01
2012-8-25,79.0,61.7,53.0,64.0,52.7,-99.9,100,82,54,0.00,40.00,4,2,9,0.00
2012-8-26,79.0,63.8,60.0,68.0,55.5,-99.9,97,84,64,0.00,40.00,8,5,16,0.00
2012-8-27,77.0,69.5,63.0,67.0,63.9,61.0,96,83,67,0.00,40.00,9,7,24,0.00
2012-8-28,74.0,67.4,62.0,70.0,64.6,52.0,99,91,70,0.00,40.00,8,5,18,0.11
2012-8-29,77.0,62.9,53.0,57.0,52.1,47.0,88,69,43,0.00,40.00,8,5,15,0.05
2012-8-30,71.0,63.6,54.0,60.0,56.1,52.0,92,78,62,0.00,40.00,8,5,16,0.00
2012-8-31,72.0,65.9,63.0,63.0,59.7,57.0,99,81,63,0.00,40.00,10,7,19,0.14
2012-9-1,78.0,64.0,51.0,63.0,55.3,49.0,99,77,36,0.00,40.00,6,3,13,0.14
2012-9-2,69.0,56.8,50.0,60.0,53.7,49.0,99,91,55,0.00,40.00,4,2,9,0.09
2012-9-3,72.0,60.1,50.0,61.0,56.6,50.0,100,89,69,0.00,40.00,7,3,17,0.04
2012-9-4,73.0,63.9,59.0,63.0,59.9,57.0,97,88,71,0.00,40.00,8,6,17,0.43
2012-9-5,70.0,65.3,58.0,70.0,64.0,57.0,99,95,87,0.00,40.00,13,6,26,1.45
2012-9-6,73.0,62.4,56.0,61.0,58.8,56.0,100,89,65,0.00,40.00,5,3,10,0.02
2012-9-7,76.0,63.3,58.0,67.0,57.8,-99.9,100,90,74,0.00,40.00,6,-34,13,0.01
2012-9-8,76.0,69.0,65.0,69.0,66.7,65.0,100,93,76,0.00,40.00,11,7,29,0.01
2012-9-9,69.0,63.1,57.0,68.0,60.5,57.0,99,91,73,0.00,40.00,11,3,26,0.35
2012-9-10,69.0,59.8,51.0,54.0,51.1,47.0,98,74,55,0.00,40.00,8,5,21,0.00
2012-9-11,71.0,60.0,53.0,56.0,49.5,46.0,97,70,43,0.00,40.00,9,6,17,0.00
2012-9-12,74.0,60.0,47.0,57.0,51.9,47.0,99,79,41,0.00,40.00,6,3,13,0.00
2012-9-13,72.0,61.9,58.0,63.0,53.8,-99.9,97,84,71,0.00,40.00,9,-37,17,0.00
2012-9-14,75.0,65.7,61.0,65.0,62.4,60.0,98,90,69,0.00,40.00,8,6,16,0.01
2012-9-15,68.0,63.0,54.0,65.0,59.1,47.0,97,87,68,0.00,40.00,9,5,18,0.08
2012-9-16,67.0,56.4,49.0,48.0,43.1,40.0,93,63,40,0.00,40.00,6,4,16,0.01
2012-9-17,67.0,55.6,42.0,55.0,46.3,41.0,98,75,42,0.00,40.00,7,3,13,0.01
2012-9-18,72.0,64.1,56.0,62.0,59.0,54.0,95,84,62,0.00,40.00,10,7,25,0.00
2012-9-19,70.0,63.5,52.0,65.0,57.6,43.0,98,82,62,0.00,40.00,12,6,28,0.24
2012-9-20,66.0,52.9,44.0,49.0,44.2,41.0,98,75,47,0.00,40.00,5,3,12,0.01
2012-9-21,59.0,53.8,45.0,54.0,51.6,44.0,99,92,80,0.00,40.00,4,2,9,0.11
2012-9-22,70.0,60.9,53.0,66.0,59.8,52.0,100,96,83,0.00,40.00,7,5,15,0.15
2012-9-23,75.0,61.8,47.0,63.0,55.3,-99.9,100,84,51,0.00,40.00,8,4,21,0.01
2012-9-24,66.0,52.0,43.0,49.0,45.1,42.0,99,81,44,0.00,40.00,5,2,11,0.00
2012-9-25,67.0,57.3,45.0,56.0,51.0,44.0,99,81,60,0.00,40.00,10,6,23,0.00
2012-9-26,65.0,61.6,59.0,60.0,57.9,55.0,97,88,81,0.00,40.00,11,8,25,0.01
2012-9-27,67.0,57.3,42.0,60.0,48.1,41.0,99,75,45,0.00,40.00,5,1,15,0.01
2012-9-28,62.0,49.8,40.0,53.0,46.2,39.0,99,88,66,0.00,40.00,6,3,12,0.43
2012-9-29,61.0,55.3,49.0,60.0,54.5,48.0,99,98,95,0.00,40.00,9,5,22,1.26
2012-9-30,61.0,57.8,56.0,60.0,57.4,55.0,99,98,96,0.00,40.00,4,0,9,0.86
2012-10-1,63.0,57.4,55.0,56.0,54.2,52.0,97,90,78,0.00,40.00,6,2,15,0.01
2012-10-2,68.0,59.6,54.0,57.0,55.6,52.0,96,87,69,0.00,40.00,7,5,17,0.01
2012-10-3,68.0,60.6,57.0,58.0,56.7,54.0,98,88,62,0.00,40.00,5,2,9,0.04
2012-10-4,59.0,57.3,54.0,58.0,55.2,53.0,98,93,82,0.00,40.00,7,4,17,0.32
2012-10-5,60.0,56.8,54.0,58.0,55.6,53.0,100,96,90,0.00,40.00,6,3,12,0.20
2012-10-6,68.0,60.7,54.0,62.0,58.3,47.0,100,92,78,0.00,40.00,11,6,23,0.10
2012-10-7,63.0,53.2,47.0,49.0,44.0,41.0,96,72,48,0.00,40.00,5,3,16,0.10
2012-10-8,60.0,49.7,43.0,49.0,43.1,39.0,98,80,48,0.00,40.00,6,3,16,0.29
2012-10-9,58.0,51.4,43.0,43.0,40.5,37.0,98,68,52,0.00,40.00,8,5,16,0.00
2012-10-10,60.0,54.2,49.0,59.0,52.1,43.0,98,93,78,0.00,40.00,9,4,24,0.18
2012-10-11,58.0,51.8,40.0,57.0,39.1,31.0,97,64,37,0.00,40.00,9,6,26,0.14
2012-10-12,55.0,49.5,40.0,45.0,36.6,27.0,85,62,44,0.00,40.00,10,6,23,0.04
2012-10-13,52.0,44.1,38.0,33.0,26.5,25.0,81,51,37,0.00,40.00,8,5,23,0.02
2012-10-14,55.0,48.3,38.0,52.0,44.3,33.0,98,86,70,0.00,40.00,7,4,18,0.09
2012-10-15,68.0,61.0,52.0,61.0,57.4,50.0,95,88,77,0.00,40.00,13,10,33,0.02
2012-10-16,62.0,53.7,44.0,60.0,50.1,36.0,98,88,71,0.00,40.00,10,5,21,0.23
2012-10-17,61.0,48.4,38.0,46.0,38.1,34.0,96,70,41,0.00,40.00,5,3,13,0.14
2012-10-18,63.0,51.1,40.0,52.0,44.1,37.0,99,81,38,0.00,40.00,5,2,11,0.00
2012-10-19,61.0,56.5,52.0,59.0,53.4,50.0,97,90,80,0.00,40.00,10,6,19,0.19
2012-10-20,64.0,61.3,56.0,63.0,60.5,56.0,99,98,95,0.00,40.00,10,7,24,1.28
2012-10-21,61.0,54.9,50.0,56.0,50.4,43.0,99,86,68,0.00,40.00,6,3,13,0.01
2012-10-22,61.0,54.2,49.0,44.0,42.0,37.0,74,64,49,0.00,40.00,7,5,20,0.01
2012-10-23,60.0,51.0,44.0,40.0,36.5,33.0,86,58,44,0.00,40.00,8,5,19,0.00
2012-10-24,57.0,46.3,33.0,43.0,35.7,30.0,96,69,42,0.00,40.00,6,3,15,0.00
2012-10-25,56.0,43.2,34.0,39.0,31.9,25.0,97,68,37,0.00,40.00,5,3,11,0.00
2012-10-26,62.0,47.6,36.0,51.0,44.1,35.0,99,89,63,0.00,40.00,6,2,11,0.00
2012-10-27,64.0,50.9,43.0,55.0,46.8,39.0,99,88,51,0.00,40.00,5,2,11,0.00
2012-10-28,57.0,52.2,50.0,50.0,48.6,46.0,97,87,75,0.00,40.00,7,3,18,0.01
2012-10-29,57.0,55.0,51.0,55.0,53.4,50.0,98,94,86,0.00,40.00,0,0,0,0.12
2012-10-30,61.0,59.1,56.0,60.0,58.2,55.0,99,97,92,0.00,40.00,8,4,19,1.06
2012-10-31,63.0,57.6,52.0,60.0,56.7,51.0,99,96,84,0.00,40.00,8,4,18,0.11
2012-11-1,57.0,51.0,45.0,52.0,47.0,42.0,97,86,69,0.00,40.00,7,4,17,0.03
2012-11-2,57.0,49.8,45.0,46.0,44.1,42.0,98,82,61,0.00,40.00,6,3,13,0.01
2012-11-3,56.0,46.2,44.0,45.0,33.8,-99.9,87,70,59,0.00,40.00,7,4,21,0.01
2012-11-4,53.0,46.4,39.0,39.0,35.7,31.0,75,66,51,0.00,40.00,7,6,19,0.00
2012-11-5,39.0,37.3,33.0,31.0,26.7,19.0,72,65,57,0.00,40.00,6,4,14,0.00
2012-11-6,43.0,33.9,26.0,21.0,19.4,17.0,80,57,39,0.00,40.00,6,3,14,0.00
2012-11-7,39.0,35.5,27.0,33.0,20.4,16.0,96,55,42,0.00,40.00,13,9,31,0.08
2012-11-8,41.0,39.1,34.0,40.0,37.1,33.0,96,93,88,0.00,40.00,15,12,34,0.92
2012-11-9,49.0,42.6,38.0,38.0,34.6,28.0,92,74,52,0.00,40.00,9,7,27,0.06
2012-11-10,50.0,41.3,29.0,33.0,26.9,21.0,84,59,33,0.00,40.00,7,4,19,0.00
2012-11-11,52.0,42.7,27.0,50.0,36.9,23.0,94,81,61,0.00,40.00,8,3,19,0.00
2012-11-12,60.0,55.0,51.0,55.0,51.8,49.0,95,90,78,0.00,40.00,11,5,23,0.00
2012-11-13,61.0,52.4,41.0,57.0,49.3,32.0,96,89,71,0.00,40.00,10,3,24,0.30
2012-11-14,46.0,39.4,36.0,32.0,28.1,-99.9,80,66,52,0.00,40.00,9,8,22,0.10
2012-11-15,42.0,36.4,35.0,32.0,26.0,-99.9,82,73,64,0.00,40.00,9,6,18,0.00
2012-11-16,45.0,38.3,35.0,32.0,30.2,29.0,82,73,57,0.00,40.00,6,4,13,0.00
2012-11-17,46.0,36.0,26.0,31.0,27.4,24.0,92,72,48,0.00,40.00,7,4,14,0.00
2012-11-18,46.0,33.7,26.0,28.0,24.0,22.0,95,70,40,0.00,40.00,5,2,10,0.00
2012-11-19,50.0,34.8,28.0,38.0,30.9,27.0,97,87,57,0.00,40.00,5,1,11,0.00
2012-11-20,51.0,36.2,28.0,35.0,30.4,27.0,97,82,41,0.00,40.00,4,1,10,0.01
2012-11-21,49.0,40.6,33.0,41.0,36.6,32.0,97,86,67,0.00,40.00,5,3,10,0.01
2012-11-22,55.0,39.3,31.0,45.0,31.7,-99.9,98,85,59,0.00,40.00,5,2,11,0.01
2012-11-23,52.0,48.2,45.0,45.0,43.8,42.0,93,85,73,0.00,40.00,8,6,16,0.01
2012-11-24,50.0,44.7,33.0,47.0,37.3,20.0,90,76,52,0.00,40.00,10,3,27,0.00
2012-11-25,38.0,33.0,30.0,21.0,15.0,9.0,63,48,34,0.00,40.00,10,7,24,0.00
2012-11-26,44.0,33.5,29.0,23.0,17.1,13.0,58,51,43,0.00,40.00,7,5,22,0.00
2012-11-27,37.0,31.0,25.0,28.0,19.8,15.0,78,63,53,0.00,40.00,5,3,12,0.00
2012-11-28,37.0,32.5,26.0,27.0,23.4,20.0,88,70,59,0.00,40.00,8,5,18,0.00
2012-11-29,41.0,34.3,23.0,31.0,20.7,14.0,92,60,36,0.00,40.00,9,5,25,0.01
2012-11-30,33.0,25.3,19.0,24.0,9.8,6.0,70,52,36,0.00,40.00,8,5,23,0.01
2012-12-1,39.0,27.2,17.0,34.0,19.2,7.0,93,72,55,0.00,40.00,7,4,14,0.07
2012-12-2,52.0,47.6,39.0,51.0,44.0,34.0,96,87,78,0.00,40.00,12,8,24,0.17
2012-12-3,55.0,46.0,31.0,49.0,40.9,30.0,95,83,61,0.00,40.00,11,4,21,0.22
2012-12-4,51.0,42.2,29.0,49.0,39.6,28.0,98,91,79,0.00,40.00,9,4,23,0.00
2012-12-5,56.0,48.2,34.0,52.0,41.5,22.0,97,79,56,0.00,40.00,11,7,26,0.14
2012-12-6,38.0,31.9,24.0,22.0,17.0,-99.9,80,57,45,0.00,40.00,9,6,25,0.02
2012-12-7,46.0,35.9,22.0,42.0,29.7,17.0,93,79,60,0.00,40.00,9,5,18,0.08
2012-12-8,46.0,42.9,41.0,45.0,41.8,40.0,98,97,94,0.00,40.00,5,2,12,0.32
2012-12-9,47.0,39.7,30.0,40.0,32.5,26.0,97,77,54,0.00,40.00,8,4,20,0.05
2012-12-10,50.0,43.2,36.0,50.0,40.2,28.0,99,90,69,0.00,40.00,6,2,16,0.60
2012-12-11,43.0,37.5,29.0,42.0,33.1,19.0,98,85,69,0.00,40.00,7,3,15,0.13
2012-12-12,37.0,28.6,24.0,24.0,19.6,16.0,91,70,50,0.00,40.00,6,3,15,0.00
2012-12-13,44.0,31.4,24.0,30.0,25.3,21.0,94,80,46,0.00,40.00,3,2,8,0.01
2012-12-14,45.0,38.2,30.0,34.0,29.5,27.0,93,71,61,0.00,40.00,8,4,17,0.01
2012-12-15,39.0,27.4,18.0,29.0,13.1,5.0,70,55,39,0.00,40.00,8,6,18,0.00
2012-12-16,28.0,21.5,15.0,17.0,7.7,2.0,72,55,41,0.00,40.00,7,5,17,0.00
2012-12-17,44.0,34.9,25.0,38.0,29.8,20.0,91,81,74,0.00,40.00,10,7,23,0.04
2012-12-18,46.0,44.6,43.0,45.0,42.2,38.0,97,92,77,0.00,40.00,11,9,28,1.85
2012-12-19,46.0,39.9,34.0,45.0,38.3,32.0,97,94,89,0.00,40.00,11,9,27,0.86
2012-12-20,37.0,33.6,32.0,32.0,29.5,27.0,93,85,75,0.00,40.00,8,5,17,0.05
2012-12-21,51.0,43.4,34.0,50.0,40.7,30.0,97,90,83,0.00,40.00,11,7,29,0.84
2012-12-22,46.0,38.7,30.0,43.0,35.0,18.0,93,87,70,0.00,40.00,10,6,21,0.58
2012-12-23,36.0,29.8,24.0,23.0,15.2,12.0,63,54,44,0.00,40.00,8,5,20,0.01
2012-12-24,36.0,32.2,29.0,25.0,17.3,13.0,69,54,42,0.00,40.00,9,5,21,0.00
2012-12-25,32.0,28.4,21.0,20.0,17.2,14.0,82,63,53,0.00,40.00,8,4,14,0.00
2012-12-26,33.0,25.3,20.0,24.0,16.3,13.0,79,69,51,0.00,40.00,7,5,16,0.00
2012-12-27,38.0,34.3,29.0,36.0,31.8,23.0,96,91,78,0.00,40.00,15,11,39,1.23
2012-12-28,34.0,30.2,27.0,30.0,23.8,18.0,96,78,64,0.00,40.00,11,8,28,0.18
2012-12-29,33.0,27.2,18.0,29.0,21.8,16.0,95,81,66,0.00,40.00,10,5,20,0.01
2012-12-30,27.0,23.9,18.0,26.0,21.6,11.0,95,90,79,0.00,40.00,13,10,33,0.01
2012-12-31,32.0,23.1,17.0,24.0,10.3,-99.9,90,67,53,0.00,40.00,13,6,35,0.11
2013-1-1,37.0,27.2,14.0,26.0,14.5,1.0,86,60,38,0.00,40.00,10,6,29,0.05